Regional Weather Roundup
Issued by NWS

Home | Current Version | Previous Version | Graphics & Text | Print | Product List | Glossary On
Versions: 1 2 3 4 5 6 7 8 9 10 11 12 13 14 15 16 17 18 19 20 21 22 23 24 25 26 27 28 29 30 31 32 33 34 35 36 37 38 39 40 41 42 43 44 45 46 47 48 49 50
266
ASUS43 KLMK 051810
RWRKY
KENTUCKY REGIONAL WEATHER ROUNDUP
NATIONAL WEATHER SERVICE LOUISVILLE KY
100 PM EST FRI FEB 05 2016

NOTE "FAIR" INDICATES FEW OR NO CLOUDS BELOW 12,000 FEET
WITH NO SIGNIFICANT WEATHER AND/OR OBSTRUCTIONS TO VISIBILITY.

KYZ001>023-026-027-061>063-070>075-051900-
WESTERN AND SOUTH CENTRAL KENTUCKY

CITY           SKY/WX    TMP DP  RH WIND       PRES   REMARKS
PADUCAH        CLOUDY    48  22  35 SW10      30.42F
HENDERSON      SUNNY     45  25  45 W9        30.41F
OWENSBORO      SUNNY     45  27  49 SW7       30.42F
HOPKINSVILLE   CLOUDY    46  20  36 W3        30.42F
BOWLING GREEN  SUNNY     44  21  40 SW9       30.44F
GLASGOW        SUNNY     42  19  38 SW6       30.42F
$$

KYZ024-025-028>034-038-045-046-053-051900-
NORTH CENTRAL KENTUCKY

CITY           SKY/WX    TMP DP  RH WIND       PRES   REMARKS
LOUISVILLE/SDF MOSUNNY   44  19  36 S8        30.40F
LOUISVILLE/LOU SUNNY     41  19  41 S8        30.41F
FORT KNOX      SUNNY     42  21  43 S8        30.38F
$$

KYZ035>037-039>044-047>052-055>060-089>105-051900-
NORTHEAST KENTUCKY

CITY           SKY/WX    TMP DP  RH WIND       PRES   REMARKS
LEXINGTON      SUNNY     40  15  36 S5        30.40F
COVINGTON      MOSUNNY   40  19  43 S7        30.38F
FRANKFORT      SUNNY     40  15  36 S6        30.40F
$$

KYZ054-064>069-076>088-106>120-051900-
SOUTHEAST KENTUCKY

CITY           SKY/WX    TMP DP  RH WIND       PRES   REMARKS
JACKSON        SUNNY     37  15  40 VRB6      30.40F WCI  32
LONDON         SUNNY     38  14  37 VRB3      30.41F
SOMERSET       SUNNY     37  18  44 W5        30.43F WCI  34
MIDDLESBORO    SUNNY     40  17  40 NE7       30.41F WCI  35
MONTICELLO     CLEAR     39  15  37 NE9       30.43F WCI  33
$$





USA.gov is the U.S. government's official web portal to all federal, state and local government web resources and services.